Location: Little Chesterford
(52.0500°N, 0.1833°E)
Time: 12:09:33
(UTC+00:00)

Cosmos 1733 - Pass Details

Date: 26 September 2023
Orbit: 472 x 489 km, 82.5° (Epoch: 29 November)

Event Time Altitude Azimuth Distance (km) Brightness Sun altitude
Rises 18:28:41 0° 171° (S) 2,555 6.6 -6.9°
Reaches altitude 10° 18:30:51 10° 164° (SSE) 1,684 5.6 -7.2°
Maximum altitude 18:34:19 41° 94° (E) 735 3.5 -7.8°
Drops below altitude 10° 18:37:52 10° 23° (NNE) 1,712 5.7 -8.3°
Sets 18:40:04 0° 17° (NNE) 2,604 6.7 -8.7°
